�������l�o���
Date,Time,MP-1(��Sv/h),MP-2(��Sv/h),MP-3(��Sv/h),MP-4(��Sv/h),MP-5(��Sv/h),MP-6(��Sv/h),MP-7(��Sv/h),MP-8(��Sv/h),����,����(m/s),���J
2021/02/01,00:00,0.660,0.947,0.605,1.199,0.842,0.374,0.666,0.627,�k��,6.7,��
2021/02/01,00:10,0.660,0.947,0.601,1.200,0.841,0.374,0.666,0.630,�k��,4.9,��
2021/02/01,00:20,0.661,0.946,0.602,1.199,0.842,0.375,0.667,0.629,�k�k��,2.6,��
2021/02/01,00:30,0.659,0.945,0.603,1.201,0.841,0.375,0.665,0.627,�k,3.0,��
2021/02/01,00:40,0.661,0.946,0.603,1.198,0.840,0.374,0.665,0.628,�k,3.8,��
2021/02/01,00:50,0.661,0.947,0.603,1.200,0.841,0.373,0.666,0.629,�k�k��,3.8,��
2021/02/01,01:00,0.660,0.946,0.602,1.199,0.841,0.373,0.666,0.627,�k,3.4,��
2021/02/01,01:10,0.662,0.947,0.603,1.197,0.841,0.375,0.666,0.628,�k�k��,3.9,��
2021/02/01,01:20,0.660,0.947,0.601,1.197,0.841,0.375,0.666,0.628,�k�k��,4.0,��
2021/02/01,01:30,0.660,0.945,0.603,1.201,0.841,0.374,0.665,0.629,�k��,3.9,��
2021/02/01,01:40,0.661,0.948,0.603,1.198,0.839,0.372,0.665,0.628,�k��,4.0,��
2021/02/01,01:50,0.661,0.948,0.605,1.201,0.841,0.375,0.666,0.628,�k��,4.7,��
2021/02/01,02:00,0.659,0.948,0.602,1.198,0.839,0.373,0.664,0.628,�k��,5.8,��
2021/02/01,02:10,0.659,0.945,0.602,1.196,0.839,0.373,0.665,0.629,�k��,4.3,��
2021/02/01,02:20,0.660,0.943,0.603,1.201,0.839,0.374,0.664,0.629,�k��,4.3,��
2021/02/01,02:30,0.657,0.947,0.603,1.199,0.840,0.373,0.666,0.627,�k��,4.5,��
2021/02/01,02:40,0.659,0.947,0.604,1.197,0.839,0.374,0.665,0.628,�k��,4.5,��
2021/02/01,02:50,0.660,0.946,0.604,1.197,0.838,0.373,0.666,0.627,�k��,3.6,��
2021/02/01,03:00,0.658,0.947,0.604,1.199,0.840,0.374,0.665,0.627,�k��,3.6,��
2021/02/01,03:10,0.661,0.947,0.603,1.197,0.842,0.375,0.664,0.629,�k��,3.6,��
2021/02/01,03:20,0.659,0.945,0.606,1.196,0.841,0.374,0.664,0.629,�k�k��,4.3,��
2021/02/01,03:30,0.659,0.944,0.603,1.199,0.840,0.374,0.665,0.628,�k�k��,4.2,��
2021/02/01,03:40,0.661,0.947,0.603,1.200,0.839,0.373,0.665,0.627,�k�k��,4.1,��
2021/02/01,03:50,0.659,0.946,0.602,1.200,0.839,0.373,0.666,0.629,�k�k��,5.0,��
2021/02/01,04:00,0.659,0.947,0.602,1.198,0.839,0.374,0.665,0.629,�k�k��,5.9,��
2021/02/01,04:10,0.660,0.945,0.603,1.200,0.840,0.373,0.665,0.628,�k�k��,5.1,��
2021/02/01,04:20,0.660,0.945,0.603,1.201,0.839,0.373,0.665,0.629,�k�k��,4.7,��
2021/02/01,04:30,0.661,0.946,0.602,1.198,0.839,0.373,0.665,0.628,�k�k��,5.6,��
2021/02/01,04:40,0.661,0.945,0.604,1.198,0.838,0.375,0.665,0.629,�k��,6.0,��
2021/02/01,04:50,0.659,0.945,0.603,1.199,0.839,0.370,0.665,0.628,�k��,4.9,��
2021/02/01,05:00,0.661,0.943,0.601,1.198,0.840,0.373,0.665,0.627,�k�k��,3.5,��
2021/02/01,05:10,0.659,0.946,0.603,1.199,0.838,0.373,0.666,0.628,�k��,2.8,��
2021/02/01,05:20,0.659,0.947,0.603,1.198,0.840,0.374,0.666,0.628,�k�k��,2.2,��
2021/02/01,05:30,0.660,0.947,0.604,1.201,0.839,0.375,0.666,0.629,�k�k��,2.2,��
2021/02/01,05:40,0.658,0.944,0.604,1.198,0.838,0.374,0.664,0.629,��,1.4,��
2021/02/01,05:50,0.659,0.945,0.602,1.199,0.838,0.373,0.665,0.629,���쐼,1.1,��
2021/02/01,06:00,0.660,0.945,0.604,1.198,0.840,0.376,0.667,0.627,���쐼,0.8,��
2021/02/01,06:10,0.661,0.944,0.603,1.199,0.839,0.374,0.665,0.628,-,CALM,��
2021/02/01,06:20,0.661,0.946,0.604,1.198,0.838,0.375,0.664,0.628,�k,0.6,��
2021/02/01,06:30,0.660,0.946,0.603,1.199,0.838,0.374,0.664,0.629,-,CALM,��
2021/02/01,06:40,0.661,0.946,0.602,1.197,0.840,0.372,0.665,0.629,�k�k��,0.6,��
2021/02/01,06:50,0.659,0.943,0.602,1.199,0.839,0.374,0.665,0.628,�k�k��,0.6,��
2021/02/01,07:00,0.660,0.945,0.603,1.200,0.839,0.375,0.665,0.628,�k,0.9,��
2021/02/01,07:10,0.661,0.944,0.603,1.200,0.837,0.375,0.663,0.627,�k��,0.9,��
2021/02/01,07:20,0.658,0.945,0.602,1.199,0.837,0.373,0.665,0.629,�k�k��,0.9,��
2021/02/01,07:30,0.661,0.946,0.602,1.199,0.840,0.375,0.666,0.628,�k,1.2,��
2021/02/01,07:40,0.661,0.946,0.603,1.198,0.839,0.374,0.666,0.628,�k�k��,0.9,��
2021/02/01,07:50,0.660,0.944,0.602,1.197,0.840,0.374,0.666,0.629,�k,0.8,��
2021/02/01,08:00,0.661,0.945,0.603,1.199,0.839,0.374,0.666,0.628,-,CALM,��
2021/02/01,08:10,0.662,0.946,0.603,1.198,0.838,0.374,0.665,0.628,-,CALM,��
2021/02/01,08:20,0.662,0.944,0.603,1.200,0.838,0.375,0.665,0.629,��쐼,1.1,��
2021/02/01,08:30,0.662,0.944,0.602,1.201,0.840,0.376,0.665,0.628,��,1.2,��
2021/02/01,08:40,0.663,0.944,0.604,1.197,0.838,0.376,0.667,0.628,��,2.3,��
2021/02/01,08:50,0.663,0.942,0.602,1.199,0.840,0.375,0.668,0.628,��,2.5,��
2021/02/01,09:00,0.663,0.944,0.604,1.198,0.841,0.375,0.667,0.629,��,2.9,��
2021/02/01,09:10,0.663,0.945,0.605,1.198,0.838,0.375,0.667,0.630,��쐼,2.0,��
2021/02/01,09:20,0.662,0.946,0.604,1.200,0.840,0.376,0.667,0.629,��,2.2,��
2021/02/01,09:30,0.665,0.944,0.604,1.200,0.841,0.375,0.666,0.629,��쓌,2.6,��
2021/02/01,09:40,0.663,0.944,0.605,1.200,0.842,0.375,0.669,0.628,��쓌,2.5,��
2021/02/01,09:50,0.665,0.944,0.605,1.199,0.841,0.376,0.667,0.628,��쓌,3.1,��
2021/02/01,10:00,0.664,0.944,0.604,1.199,0.842,0.375,0.666,0.630,��쓌,2.6,��
2021/02/01,10:10,0.664,0.943,0.605,1.200,0.842,0.376,0.667,0.631,��쓌,2.6,��
2021/02/01,10:20,0.664,0.945,0.604,1.201,0.840,0.377,0.666,0.629,��쓌,3.1,��
2021/02/01,10:30,0.665,0.943,0.605,1.202,0.841,0.377,0.668,0.630,��,5.2,��
2021/02/01,10:40,0.665,0.942,0.606,1.197,0.842,0.375,0.665,0.631,��쓌,6.0,��
2021/02/01,10:50,0.668,0.943,0.606,1.200,0.840,0.376,0.667,0.629,��쓌,6.8,��
2021/02/01,11:00,0.666,0.942,0.607,1.199,0.842,0.376,0.667,0.629,��쓌,8.1,��
2021/02/01,11:10,0.663,0.946,0.607,1.203,0.844,0.377,0.666,0.630,��쓌,8.0,��
2021/02/01,11:20,0.665,0.944,0.605,1.202,0.841,0.374,0.666,0.630,��쓌,7.6,��
2021/02/01,11:30,0.667,0.942,0.608,1.203,0.843,0.375,0.666,0.632,��쓌,8.6,��
2021/02/01,11:40,0.666,0.946,0.607,1.201,0.842,0.375,0.667,0.631,��쓌,10.6,��
2021/02/01,11:50,0.665,0.946,0.606,1.202,0.844,0.376,0.666,0.629,��,10.5,��
2021/02/01,12:00,0.664,0.945,0.606,1.200,0.842,0.376,0.667,0.631,��,9.3,��
2021/02/01,12:10,0.666,0.947,0.607,1.203,0.841,0.376,0.665,0.631,��쐼,8.5,��
2021/02/01,12:20,0.666,0.947,0.607,1.200,0.845,0.377,0.667,0.631,��,9.8,�L
2021/02/01,12:30,0.665,0.948,0.606,1.201,0.844,0.376,0.666,0.631,��쐼,9.7,��
2021/02/01,12:40,0.664,0.952,0.607,1.201,0.844,0.377,0.667,0.630,��쐼,9.4,��
2021/02/01,12:50,0.665,0.951,0.608,1.200,0.845,0.377,0.668,0.629,��쐼,9.9,��
2021/02/01,13:00,0.667,0.949,0.608,1.203,0.844,0.377,0.667,0.631,��쐼,10.8,��
2021/02/01,13:10,0.665,0.948,0.608,1.200,0.845,0.377,0.667,0.630,��쐼,7.1,��
2021/02/01,13:20,0.667,0.947,0.606,1.201,0.843,0.376,0.668,0.631,��,7.2,��
2021/02/01,13:30,0.666,0.948,0.606,1.201,0.844,0.378,0.668,0.630,��,10.2,��
2021/02/01,13:40,0.664,0.947,0.607,1.204,0.845,0.377,0.668,0.630,��,9.2,��
2021/02/01,13:50,0.662,0.949,0.608,1.200,0.844,0.379,0.668,0.632,��,7.2,��
2021/02/01,14:00,0.666,0.946,0.608,1.203,0.845,0.377,0.667,0.630,��,8.0,��
2021/02/01,14:10,0.666,0.945,0.607,1.203,0.844,0.379,0.669,0.628,��,7.6,��
2021/02/01,14:20,0.667,0.948,0.609,1.202,0.845,0.378,0.669,0.628,��,8.8,��
2021/02/01,14:30,0.664,0.949,0.608,1.201,0.846,0.378,0.668,0.629,��,10.5,��
2021/02/01,14:40,0.666,0.950,0.609,1.203,0.847,0.377,0.668,0.631,��쐼,12.4,��
2021/02/01,14:50,0.666,0.949,0.607,1.204,0.846,0.378,0.669,0.629,��,9.8,��
2021/02/01,15:00,0.667,0.950,0.609,1.204,0.843,0.380,0.668,0.627,��,11.7,��
2021/02/01,15:10,0.667,0.952,0.609,1.201,0.846,0.379,0.667,0.629,��,8.9,��
2021/02/01,15:20,0.667,0.949,0.609,1.201,0.843,0.378,0.668,0.629,��쓌,10.7,��
2021/02/01,15:30,0.665,0.947,0.608,1.202,0.842,0.379,0.669,0.629,��,10.6,��
2021/02/01,15:40,0.666,0.948,0.607,1.204,0.845,0.378,0.669,0.630,��,11.3,��
2021/02/01,15:50,0.668,0.950,0.610,1.201,0.843,0.380,0.669,0.628,��,10.0,��
2021/02/01,16:00,0.665,0.950,0.609,1.201,0.846,0.378,0.670,0.631,��,9.5,��
2021/02/01,16:10,0.666,0.952,0.607,1.201,0.846,0.379,0.669,0.631,��,10.2,��
2021/02/01,16:20,0.665,0.952,0.609,1.203,0.846,0.379,0.669,0.631,��,8.8,��
2021/02/01,16:30,0.665,0.951,0.608,1.204,0.845,0.379,0.669,0.631,��,9.3,��
2021/02/01,16:40,0.667,0.950,0.607,1.203,0.845,0.379,0.671,0.629,��,8.4,��
2021/02/01,16:50,0.669,0.951,0.607,1.204,0.847,0.379,0.670,0.632,��,8.7,��
2021/02/01,17:00,0.668,0.950,0.610,1.201,0.844,0.379,0.669,0.631,��,8.6,��
2021/02/01,17:10,0.666,0.952,0.606,1.202,0.846,0.378,0.668,0.632,��,8.9,��
2021/02/01,17:20,0.667,0.950,0.609,1.203,0.846,0.379,0.669,0.631,��,8.4,��
2021/02/01,17:30,0.665,0.952,0.608,1.204,0.846,0.379,0.670,0.631,��,7.6,��
2021/02/01,17:40,0.666,0.951,0.609,1.204,0.847,0.379,0.671,0.632,��,7.1,��
2021/02/01,17:50,0.666,0.952,0.608,1.205,0.846,0.379,0.669,0.632,��,7.8,��
2021/02/01,18:00,0.667,0.951,0.608,1.204,0.850,0.380,0.669,0.632,��쐼,7.5,��
2021/02/01,18:10,0.667,0.953,0.608,1.203,0.846,0.379,0.670,0.630,��,8.4,��
2021/02/01,18:20,0.667,0.949,0.610,1.205,0.848,0.378,0.671,0.632,��,8.8,��
2021/02/01,18:30,0.668,0.950,0.608,1.204,0.847,0.379,0.671,0.631,��,8.9,��
2021/02/01,18:40,0.668,0.951,0.609,1.201,0.846,0.381,0.671,0.630,��,8.3,��
2021/02/01,18:50,0.668,0.948,0.608,1.202,0.847,0.378,0.672,0.630,��,7.6,��
2021/02/01,19:00,0.666,0.951,0.607,1.204,0.846,0.379,0.671,0.631,��,7.4,��
2021/02/01,19:10,0.667,0.950,0.608,1.204,0.846,0.378,0.671,0.632,��쐼,8.3,��
2021/02/01,19:20,0.669,0.952,0.609,1.204,0.846,0.380,0.671,0.630,��쐼,8.2,��
2021/02/01,19:30,0.667,0.950,0.607,1.201,0.847,0.379,0.671,0.631,��쐼,7.6,��
2021/02/01,19:40,0.668,0.951,0.608,1.204,0.847,0.379,0.672,0.632,��쐼,8.0,��
2021/02/01,19:50,0.666,0.950,0.608,1.202,0.847,0.379,0.671,0.631,��쐼,7.6,��
2021/02/01,20:00,0.667,0.950,0.610,1.205,0.846,0.380,0.671,0.632,��쐼,8.7,��
2021/02/01,20:10,0.669,0.951,0.608,1.202,0.848,0.378,0.671,0.631,��쐼,8.7,��
2021/02/01,20:20,0.666,0.949,0.611,1.203,0.849,0.379,0.672,0.631,��쐼,8.9,��
2021/02/01,20:30,0.669,0.949,0.609,1.203,0.847,0.381,0.673,0.632,��쐼,8.7,��
2021/02/01,20:40,0.669,0.952,0.609,1.203,0.847,0.380,0.672,0.632,�쐼,10.0,��
2021/02/01,20:50,0.668,0.948,0.610,1.204,0.846,0.379,0.672,0.631,�쐼,9.4,��
2021/02/01,21:00,0.668,0.953,0.609,1.203,0.849,0.380,0.672,0.632,�쐼,8.8,��
2021/02/01,21:10,0.667,0.951,0.609,1.205,0.848,0.379,0.671,0.630,�쐼,8.8,��
2021/02/01,21:20,0.669,0.951,0.609,1.203,0.847,0.380,0.671,0.631,�쐼,8.4,��
2021/02/01,21:30,0.668,0.949,0.609,1.203,0.848,0.380,0.670,0.630,�쐼,8.3,��
2021/02/01,21:40,0.669,0.950,0.609,1.203,0.847,0.381,0.670,0.631,�쐼,7.0,��
2021/02/01,21:50,0.668,0.950,0.609,1.203,0.849,0.380,0.671,0.632,�쐼,7.2,��
2021/02/01,22:00,0.669,0.951,0.609,1.203,0.847,0.380,0.671,0.632,�쐼,7.3,��
2021/02/01,22:10,0.666,0.950,0.610,1.206,0.847,0.379,0.671,0.631,�쐼,7.6,��
2021/02/01,22:20,0.669,0.950,0.608,1.202,0.848,0.380,0.672,0.632,�쐼,8.1,��
2021/02/01,22:30,0.669,0.950,0.609,1.205,0.848,0.380,0.671,0.630,�쐼,6.4,��
2021/02/01,22:40,0.668,0.952,0.609,1.203,0.849,0.381,0.673,0.632,���쐼,8.3,��
2021/02/01,22:50,0.670,0.951,0.608,1.204,0.848,0.379,0.671,0.634,�쐼,8.4,��
2021/02/01,23:00,0.669,0.951,0.610,1.206,0.847,0.381,0.671,0.632,�쐼,8.5,��
2021/02/01,23:10,0.667,0.951,0.609,1.206,0.848,0.380,0.672,0.633,�쐼,9.5,��
2021/02/01,23:20,0.668,0.952,0.611,1.204,0.848,0.381,0.671,0.631,�쐼,8.2,��
2021/02/01,23:30,0.667,0.951,0.609,1.206,0.849,0.380,0.671,0.633,�쐼,7.3,��
2021/02/01,23:40,0.668,0.951,0.610,1.205,0.848,0.381,0.672,0.631,���쐼,7.4,��
2021/02/01,23:50,0.669,0.951,0.612,1.204,0.851,0.381,0.671,0.631,�쐼,7.0,��
